Regional Weather Roundup
Issued by NWS

Home | Current Version | Previous Version | Graphics & Text | Print | Product List | Glossary On
Versions: 1 2 3 4 5 6 7 8 9 10 11 12 13 14 15 16 17 18 19 20 21 22 23 24 25 26 27 28 29 30 31 32 33 34 35 36 37 38 39 40 41 42 43 44 45 46 47 48 49 50
000
ASUS43 KFSD 041102
RWRSD

WEATHER ROUNDUP FOR SOUTH DAKOTA
NATIONAL WEATHER SERVICE SIOUX FALLS SD
500 AM CST WED MAR 04 2015

NOTE: "FAIR" INDICATES FEW OR NO CLOUDS BELOW 12,000 FEET WITH NO
SIGNIFICANT WEATHER AND/OR OBSTRUCTIONS TO VISIBILITY.


SDZ001>005-009-010-012>017-041200-
NORTHWEST AND NORTH CENTRAL SOUTH DAKOTA

CITY           SKY/WX    TMP DP  RH WIND       PRES   REMARKS
BUFFALO          N/A     -1  -6  79 W10       30.01R WCI -17
FAITH            N/A      0  -7  72 NW9       30.11R WCI -15
MOBRIDGE       CLEAR      7  -4  60 NW18G26   30.09R WCI -12
$$

SDZ012>016-024>037-041>051-057-063-072>074-041200-
SOUTHWEST AND SOUTH CENTRAL SOUTH DAKOTA

CITY           SKY/WX    TMP DP  RH WIND       PRES   REMARKS
RAPID CTY ARPT CLEAR      3  -5  69 N12       30.09R WCI -13
PIERRE         CLEAR      7  -2  66 NW17      30.14R WCI -12
CUSTER         CLEAR      0  -8  69 W8G18     29.88S WCI -14
ELLSWORTH AFB  CLEAR      8  -4  58 N8        30.07R WCI  -4
PHILIP         CLEAR      5  -5  63 W12       30.16R WCI -11
PINE RIDGE     CLEAR      2  -4  76 W5        30.11S WCI  -8
SPEARFISH      MOCLDY     5  -4  66 W12       30.03S WCI -11
WINNER         FAIR       5  -7  57 W10       30.14R WCI -10
$$

SDZ004>011-016>023-039-040-041200-
NORTHEAST SOUTH DAKOTA

CITY           SKY/WX    TMP DP  RH WIND       PRES   REMARKS
ABERDEEN       LGT SNOW   3  -2  79 W3        30.14R
WATERTOWN      MOCLDY    -8 -14  74 SW6       30.07R WCI -21
$$

SDZ017-020-022-023-036>040-048>070-041200-
SOUTHEAST SOUTH DAKOTA

CITY           SKY/WX    TMP DP  RH WIND       PRES   REMARKS
SIOUX FALLS    PTCLDY     2  -3  80 SW5       30.15R WCI  -8
HURON          PTCLDY    -5  -9  83 S5        30.15R WCI -16
MITCHELL       CLEAR      1  -3  83 S5        30.17R WCI  -9
YANKTON        PTCLDY     9   0  66 W3        30.20S
$$

ABBREVIATIONS USED IN REMARKS
   TC - TEMPERATURE IN CELSIUS
  WCI - WIND CHILL INDEX
   HX - HEAT INDEX
  VSB - VISIBILITY




USA.gov is the U.S. government's official web portal to all federal, state and local government web resources and services.